OBJECT F, 64053

Orbit data source: Space-Track

You're viewing an Uncataloged Satellite

Recently launched and/or uncataloged satellites may have evolving metadata. Metadata may include but not limited to: Owner, Maufacturer, Bus, Motor, and Mission.

OBJECT F, 64053 is a Chinese satellite in SSO that was launched on Sat, 17 May 2025 UTC via a ZHUQUE-2E launch vehicle from the Jiuquan Satellite Launch Center, China (JSC). Unknown objects in Earth's orbit typically refer to objects detected orbiting the Earth but have not yet been identified or cataloged. These objects could be anything from previously untracked satellites, spent rocket stages, debris from satellite collisions, or even natural meteoroids temporarily captured by Earth's gravity.

Loading next visibility...
Identifier
64053, 2025-103F
Orbit
SSO
Last TLE update
8 hours ago
Origin
Flag of CNCTYK/YOUD (CN / PRC)
Manufacturer
Changsha Tianyi
Mission
Operational spacecraft
Bus & Motor
TY, Unknown motor
Mass
~50 kg wet, ~50 kg dry
Launch date (UTC)
2025-05-17 (1 month ago)
Launch vehicle
ZHUQUE-2E
Launch site
Jiuquan Satellite Launch Center, China (JSC)
Object type
Unknown
Shape & HBR
Unknown
Radar Cross Section
Medium (>0.1 m² and <1 m²)

Expand to show TLE details & history

TLE from 8 hours ago
0 OBJECT F
1 64053U 25103F   25169.90774053  .00003626  00000-0  19519-3 0  9992
2 64053  97.4191 244.7918 0003382  22.6842 337.4539 15.15448082  4967
Epoch: 2025-06-18T21:47Z
TLE epoch observation values (Epoch: 2025-06-18T21:47:08.781Z)
Latitude
-0.00009°
Longitude
10.62219°
Altitude
520.547 km
Speed
7.604 km/s
True Right ascension
16h 19m 10s
True Declination
0° 00' 00"
Sunlit
Object was in full shadow at epoch
Visualization orbit readout
Latitude
62.18763°
Longitude
-154.82358°
Altitude
530.524 km
Speed
7.603 km/s
Apparent Right ascension
05h 09m 13s
Apparent Declination
13° 56' 13"
Sunlit
Object is in daylight
Visualization observer readout
Local Sidereal Time
17:03:51
Azimuth
358.384° N
Elevation
-36.132°
Doppler factor
1
Orbital elements
Apogee altitude
518.923 km
Perigee altitude
514.259 km
Semi-major axis
6,894.728 km
Eccentricity
0.00034
Inclination
97.4191°
RAAN
244.7918°
Arg. of periapsis
22.6842°
True anomaly
Unknown
Mean anomaly
337.4539°
Eccentric anomaly
Unknown
Mean motion
3.79112 °/min
Orbital period
94.96 mins
BSTAR
0.00019519
Loading maneuver chart data...
Loading SW <> Apogee altitude chart data...
Loading historical data...
Loading historical data...
Loading historical data...
Loading historical data...
Loading historical data...
Loading historical data...
Loading historical data...

OBJECT F Visibility forecast

Observer location: undefined°, undefined°

Span
Click to sort rows by Start time (UTC) header in descending order
Start Az.
Max El. time (UTC)
Max El. Az.
Max El.
End time (UTC)
End Az.
6 mins2025-06-19 17:22:24.331Z34.766° NE2025-06-19 17:25:24.331Z104.192° ESE30.083°2025-06-19 17:28:24.331Z163.455° S
5 mins2025-06-20 05:37:24.331Z217.619° SW2025-06-20 05:39:24.331Z273.358° WNW27.173°2025-06-20 05:42:24.331Z326.65° NNW
|